Other Public Products
Issued by NWS Grand Forks, ND

Home | Current Version | Previous Version | Graphics & Text | Print | Product List | Glossary Off
Versions: 1 2 3 4 5 6 7 8 9 10 11 12 13 14 15 16 17 18 19 20 21 22 23 24 25 26 27 28 29 30 31 32 33 34 35 36 37 38 39 40 41 42 43 44 45 46 47 48 49 50

000
FPUS83 KFGF 290010
OPUFGF
PRAIRIE TO PINES WEATHER ROUNDUP
NATIONAL WEATHER SERVICE EASTERN NORTH DAKOTA/GRAND FORKS ND
700 PM CDT WED SEP 28 2016

 **SATELLITE DATA USED TO AUGMENT SKY COVER AT AUTOMATED STATIONS**
 *****  WEATHER ACROSS EASTERN NORTH DAKOTA  *****

CITY           SKY/WX    TMP DP  RH WIND       PRES   REMARKS
GRAND FORKS    PTCLDY    58  47  66 N3        30.36R
6HR MIN TEMP:  57; 6HR MAX TEMP:  62;

GRAND FORKS AF CLEAR     56  46  69 E5        30.37R
GRAND CITY NWS   N/A     54 N/A N/A VRB1        N/A
BUXTON         NOT AVBL
DEVILS LAKE    CLEAR     59  47  64 S3        30.36R
6HR MIN TEMP:  51; 6HR MAX TEMP:  60;

FARGO          CLEAR     60  46  59 NE8       30.34R
6HR MIN TEMP:  57; 6HR MAX TEMP:  67;

WAHPETON ARPT  CLEAR     57  45  62 E6        30.34R
$$

 *****  WEATHER ACROSS CENTRAL AND WESTERN NORTH DAKOTA  *****

CITY           SKY/WX    TMP DP  RH WIND       PRES   REMARKS
JAMESTOWN      CLEAR     57  45  64 E5        30.33S HAZE
6HR MIN TEMP:  55; 6HR MAX TEMP:  63;

BISMARCK       CLEAR     62  47  57 E10       30.32R
6HR MIN TEMP:  62; 6HR MAX TEMP:  70;

MINOT          CLEAR     63  43  48 E10       30.31R
6HR MIN TEMP:  63; 6HR MAX TEMP:  70;

MINOT AFB      CLEAR     64  41  43 SE10      30.30R
6HR MIN TEMP:  64; 6HR MAX TEMP:  69;

GARRISON         N/A     64  35  34 E6        30.30S
6HR MIN TEMP:  64; 6HR MAX TEMP:  71;

WILLISTON      CLEAR     73  50  44 SE13      30.24S
6HR MIN TEMP:  63; 6HR MAX TEMP:  76;

DICKINSON      CLEAR     68  43  40 SE12      30.27R
6HR MIN TEMP:  68; 6HR MAX TEMP:  75;

HETTINGER      CLEAR     71  43  36 E10       30.29R
6HR MIN TEMP:  71; 6HR MAX TEMP:  76;

$$

 *****  OTHER OBSERVATIONS NORTHEAST NORTH DAKOTA  *****

CITY           SKY/WX    TMP DP  RH WIND       PRES   REMARKS
WALHALLA       FAIR      57  55  94 E5        30.37R
LANGDON        FAIR      57  48  72 E6        30.36S
CAVALIER       FAIR      59  48  67 E3        30.36S
GRAFTON        FAIR      57  48  72 E3        30.38S
CANDO          FAIR      57  48  72 E5        30.37S
FORT TOTTEN      N/A     58  46  63 CALM      29.95S
ROLLA          FAIR      57  46  67 E7        30.36R
RUGBY          FAIR      57  48  72 SE8       30.34R
 ***** THE ABOVE OBSERVATIONS ARE NON NWS ARE NOT QUALITY
        CONTROLLED AND MAY MIS-REPORT RAIN FOR SNOW...
$$

 *****  OTHER OBSERVATIONS SOUTHEAST NORTH DAKOTA *****

CITY           SKY/WX    TMP DP  RH WIND       PRES   REMARKS
COOPERSTOWN    FAIR      57  46  67 E7        30.36R
VALLEY CITY    FAIR      57  46  67 E6        30.36S
OAKES          NOT AVBL
GWINNER        FAIR      57  46  67 NE6       30.35R
SHEYENNE NWR     N/A     61  50  66 CALM      29.95S
BUFFALO        NOT AVBL
WYNDMERE       NOT AVBL
 ***** THE ABOVE OBSERVATIONS ARE NON NWS ARE NOT QUALITY
       CONTROLLED AND MAY MIS-REPORT RAIN FOR SNOW...
$$

  *****  WEATHER ACROSS NORTHERN MINNESOTA  *****

CITY           SKY/WX    TMP DP  RH WIND       PRES   REMARKS
FLAG ISLAND    CLOUDY    57  50  77 N6        30.37R
WARROAD        PTCLDY    54  50  87 CALM      30.38R
ROSEAU         CLOUDY    57  52  82 CALM      30.38R
HALLOCK        CLEAR     59  48  67 CALM      30.37R
THF RVR FALLS  CLOUDY    57  49  74 NE3       30.38R
6HR MIN TEMP:  57; 6HR MAX TEMP:  59;

HALSTAD          N/A     57  46  68 E8          N/A
FOSSTON        CLOUDY    54  48  82 CALM      30.38R
BAUDETTE       CLOUDY    55  49  80 NW5       30.37
6HR MIN TEMP:  55; 6HR MAX TEMP:  61;

WASKISH        CLOUDY    55  52  88 CALM      30.37R
CROOKSTON      CLOUDY    59  48  67 CALM      30.37R
$$
  *****  WEATHER ACROSS CENTRAL AND WEST MINNESOTA  *****

CITY           SKY/WX    TMP DP  RH WIND       PRES   REMARKS
BEMIDJI        CLOUDY    55  48  77 CALM      30.37R
PARK RAPIDS    CLOUDY    58  44  60 E3        30.35
6HR MIN TEMP:  58; 6HR MAX TEMP:  61;

WADENA         CLOUDY    55  45  67 E6        30.35R
DETROIT LAKES  PTCLDY    57  46  67 E3        30.36R
MOORHEAD       CLEAR     61  46  59 NE7       30.35R
FERGUS FALLS   CLEAR     59  46  63 CALM      30.35R
ELBOW LAKE     MOCLDY    59  47  65 CALM      30.34R
MORRIS MN      CLEAR     59  46  63 NE5       30.32R
STAPLES        CLOUDY    55  45  67 NE3       30.35R
WHEATON        NOT AVBL
$$
  *****  WEATHER ELSEWHERE ACROSS MINNESOTA  *****

CITY           SKY/WX    TMP DP  RH WIND       PRES   REMARKS
DULUTH         CLOUDY    55  50  83 E3        30.34R
6HR MIN TEMP:  54; 6HR MAX TEMP:  59;

INTRNTL FALLS  CLOUDY    56  47  71 N6        30.37R
6HR MIN TEMP:  56; 6HR MAX TEMP:  61;

ELY            CLOUDY    55  48  76 CALM      30.35R
CLOQUET        CLOUDY    55  46  71 CALM      30.34R
BRAINERD       CLOUDY    55  49  80 CALM      30.35
6HR MIN TEMP:  55; 6HR MAX TEMP:  59;

HIBBING        CLOUDY    54  49  83 N5        30.35R
6HR MIN TEMP:  54; 6HR MAX TEMP:  59;

ALEXANDRIA     CLOUDY    59  48  67 E9        30.35R
6HR MIN TEMP:  57; 6HR MAX TEMP:  64;

SAINT CLOUD    CLOUDY    57  48  72 N7        30.33R
6HR MIN TEMP:  57; 6HR MAX TEMP:  64;

MINNEAPOLIS    CLOUDY    59  48  67 N13       30.30R
6HR MIN TEMP:  59; 6HR MAX TEMP:  62;

$$

  *****  WEATHER ACROSS SOUTH DAKOTA  *****

CITY           SKY/WX    TMP DP  RH WIND       PRES   REMARKS
SIOUX FALLS    PTCLDY    58  46  64 E12       30.31R
6HR MIN TEMP:  58; 6HR MAX TEMP:  66;

BROOKINGS      CLEAR     57  46  66 NE6       30.32R
WATERTOWN      CLEAR     56  46  69 NE6       30.32S
6HR MIN TEMP:  55; 6HR MAX TEMP:  63;

HURON          CLEAR     63  43  48 E7        30.29R
6HR MIN TEMP:  60; 6HR MAX TEMP:  69;

SISSETON         N/A     59  46  62 N3        30.32S
ABERDEEN       CLEAR     61  42  49 E7        30.32R
6HR MIN TEMP:  59; 6HR MAX TEMP:  66;

MITCHELL       CLEAR     63  44  50 E5        30.30R
PIERRE         CLEAR     66  44  45 E8        30.28R
6HR MIN TEMP:  64; 6HR MAX TEMP:  72;

MOBRIDGE       CLEAR     64  46  52 E6        30.29R
RAPID CITY     CLEAR     73  45  36 E8        30.28R
6HR MIN TEMP:  73; 6HR MAX TEMP:  79;

$$

  *****  SOME WEATHER IN NEARBY STATES *****

CITY           SKY/WX    TMP DP  RH WIND       PRES   REMARKS
GLASGOW MT     CLEAR     70  49  47 SE13      30.19S
6HR MIN TEMP:  64; 6HR MAX TEMP:  73;

GREAT FALLS MT SUNNY     67  46  47 NE7       30.14F
6HR MIN TEMP:  55; 6HR MAX TEMP:  67;

CHEYENNE WY    CLEAR     72  34  24 SE10      30.35S
6HR MIN TEMP:  72; 6HR MAX TEMP:  76;

SCOTTSBLUFF NE CLEAR     77  42  28 E6        30.27R
6HR MIN TEMP:  75; 6HR MAX TEMP:  82;

OMAHA NE       PTCLDY    61  46  57 N8        30.26R
6HR MIN TEMP:  60; 6HR MAX TEMP:  67;

DES MOINES IA  CLOUDY    61  49  64 N9        30.22R
6HR MIN TEMP:  58; 6HR MAX TEMP:  61;

DAVENPORT IA   PTCLDY    54  51  90 N6        30.13R
6HR MIN TEMP:  54; 6HR MAX TEMP:  65; 6HR PCP:  0.01;

CHICAGO IL     TSTM      55  50  83 NE18      30.07R
6HR MIN TEMP:  55; 6HR MAX TEMP:  59; 6HR PCP:  0.13;

EAU CLAIRE WI  CLOUDY    59  52  77 N10       30.25R
6HR MIN TEMP:  59; 6HR MAX TEMP:  65;

LA CROSSE WI   PTCLDY    61  51  70 N5        30.21R
6HR MIN TEMP:  59; 6HR MAX TEMP:  67; 6HR PCP:  0.06;

$$

  *****  SOME NATIONAL WEATHER *****

CITY           SKY/WX    TMP DP  RH WIND       PRES   REMARKS
LA GUARDIA NY  DRIZZLE   63  58  83 NE21G30   30.20R
6HR MIN TEMP:  62; 6HR MAX TEMP:  71; 6HR PCP: TRACE;              C1F1C2F2C3F3C4F4C5F5C6F6C7F7C8F8C9F9CaFaCbFbCcFcCdFdCe!



USA.gov is the U.S. government's official web portal to all federal, state and local government web resources and services.